| time (UTC) | temp C | wind direction | speed KPH | gust KPH | rain 1hr cm | rain 24hr cm | rain mn cm | humidity % | barometer mb |
| 20260503193056 | 25 | 34 | 4.8 | 11.3 | 0.00 | 0.00 | 0.00 | 56 | 1012.6 |
| 20260503191604 | 24 | 46 | 4.8 | 12.9 | 0.00 | 0.00 | 0.00 | 54 | 1012.8 |
| 20260503190056 | 23 | 52 | 3.2 | 11.3 | 0.00 | 0.00 | 0.00 | 56 | 1012.7 |
| 20260503184628 | 23 | 49 | 3.2 | 14.5 | 0.00 | 0.00 | 0.00 | 60 | 1013.1 |
| 20260503183105 | 23 | 4 | 3.2 | 9.7 | 0.00 | 0.00 | 0.00 | 61 | 1013.2 |
| 20260503181554 | 22 | 40 | 3.2 | 11.3 | 0.00 | 0.00 | 0.00 | 60 | 1013.3 |
| 20260503180057 | 22 | 6 | 4.8 | 9.7 | 0.00 | 0.00 | 0.00 | 62 | 1013.5 |
| 20260503174610 | 21 | 6 | 3.2 | 11.3 | 0.00 | 0.00 | 0.00 | 63 | 1013.6 |
| 20260503173131 | 21 | 51 | 3.2 | 9.7 | 0.00 | 0.00 | 0.00 | 64 | 1013.6 |
| 20260503171553 | 20 | 60 | 4.8 | 14.5 | 0.00 | 0.00 | 0.00 | 65 | 1013.6 |
| 20260503100105 | 11 | 161 | 0.0 | 1.6 | 0.00 | 0.00 | 0.00 | 94 | 1014.3 |
| 20260503090105 | 12 | 195 | 0.0 | 3.2 | 0.00 | 0.00 | 0.00 | 92 | 1014.4 |
| 20260503081559 | 12 | 245 | 1.6 | 3.2 | 0.00 | 0.00 | 0.00 | 91 | 1014.5 |
| 20260503071610 | 13 | 159 | 0.0 | 1.6 | 0.00 | 0.00 | 0.00 | 89 | 1014.4 |
| 20260503070113 | 12 | 0 | 0.0 | 1.6 | 0.00 | 0.00 | 0.00 | 89 | 1014.4 |
| 20260503060114 | 13 | 179 | 0.0 | 3.2 | 0.00 | 0.00 | 0.00 | 85 | 1014.3 |
| 20260503054559 | 13 | 144 | 0.0 | 1.6 | 0.00 | 0.00 | 0.00 | 86 | 1014.2 |
| 20260503053056 | 13 | 0 | 0.0 | 0.0 | 0.00 | 0.00 | 0.00 | 86 | 1014.3 |
| 20260503051555 | 14 | 0 | 0.0 | 0.0 | 0.00 | 0.00 | 0.00 | 82 | 1014.2 |
| 20260503044554 | 15 | 0 | 0.0 | 1.6 | 0.00 | 0.00 | 0.00 | 80 | 1013.9 |
| 20260503043054 | 16 | 120 | 0.0 | 1.6 | 0.00 | 0.00 | 0.00 | 79 | 1013.9 |
| 20260503041557 | 16 | 120 | 0.0 | 1.6 | 0.00 | 0.00 | 0.00 | 77 | 1013.6 |
| 20260503040059 | 18 | 0 | 0.0 | 1.6 | 0.00 | 0.00 | 0.00 | 72 | 1013.3 |
| 20260503034557 | 19 | 4 | 0.0 | 4.8 | 0.00 | 0.00 | 0.00 | 64 | 1013.1 |
| 20260503033059 | 19 | 0 | 0.0 | 6.4 | 0.00 | 0.00 | 0.00 | 64 | 1012.8 |
| 20260503031553 | 20 | 221 | 0.0 | 4.8 | 0.00 | 0.00 | 0.00 | 61 | 1012.5 |
| 20260503030053 | 20 | 278 | 0.0 | 3.2 | 0.00 | 0.00 | 0.00 | 59 | 1012.4 |
| 20260503024553 | 21 | 307 | 0.0 | 1.6 | 0.00 | 0.00 | 0.00 | 58 | 1012.3 |
| 20260503023054 | 22 | 0 | 0.0 | 8.0 | 0.00 | 0.00 | 0.00 | 56 | 1012.2 |
| 20260503021555 | 23 | 267 | 0.0 | 3.2 | 0.00 | 0.00 | 0.00 | 53 | 1012.2 |
| 20260503020053 | 23 | 328 | 1.6 | 6.4 | 0.00 | 0.00 | 0.00 | 53 | 1012.2 |
| 20260503014614 | 23 | 323 | 1.6 | 8.0 | 0.00 | 0.00 | 0.00 | 52 | 1012.2 |
| 20260503013054 | 24 | 12 | 3.2 | 6.4 | 0.00 | 0.00 | 0.00 | 52 | 1012.2 |
| 20260503011617 | 24 | 330 | 3.2 | 9.7 | 0.00 | 0.00 | 0.00 | 51 | 1012.3 |
| 20260503010053 | 24 | 330 | 3.2 | 8.0 | 0.00 | 0.00 | 0.00 | 50 | 1012.2 |
| 20260503004615 | 24 | 285 | 1.6 | 6.4 | 0.00 | 0.00 | 0.00 | 51 | 1012.4 |
| 20260503003058 | 24 | 259 | 1.6 | 12.9 | 0.00 | 0.00 | 0.00 | 54 | 1012.5 |
| 20260503001555 | 23 | 23 | 3.2 | 9.7 | 0.00 | 0.00 | 0.00 | 54 | 1012.6 |
| 20260503000053 | 23 | 339 | 3.2 | 9.7 | 0.00 | 0.00 | 0.00 | 56 | 1012.7 |
| 20260502234614 | 23 | 270 | 1.6 | 11.3 | 0.00 | 0.00 | 0.00 | 55 | 1012.9 |
| 20260502233058 | 23 | 28 | 4.8 | 11.3 | 0.00 | 0.00 | 0.00 | 57 | 1013.1 |
| 20260502231556 | 23 | 2 | 3.2 | 12.9 | 0.00 | 0.00 | 0.00 | 58 | 1013.3 |
| 20260502224613 | 23 | 326 | 6.4 | 16.1 | 0.00 | 0.00 | 0.00 | 57 | 1013.7 |
| 20260502223112 | 23 | 319 | 3.2 | 11.3 | 0.00 | 0.00 | 0.00 | 58 | 1013.9 |
| 20260502221558 | 23 | 287 | 3.2 | 12.9 | 0.00 | 0.00 | 0.00 | 61 | 1014.0 |
| 20260502214559 | 22 | 335 | 6.4 | 9.7 | 0.00 | 0.00 | 0.00 | 59 | 1014.3 |
| 20260502213055 | 22 | 27 | 6.4 | 14.5 | 0.00 | 0.00 | 0.00 | 63 | 1014.4 |
| 20260502211557 | 22 | 272 | 3.2 | 11.3 | 0.00 | 0.00 | 0.00 | 62 | 1014.6 |
| 20260502210055 | 22 | 38 | 1.6 | 9.7 | 0.00 | 0.00 | 0.00 | 64 | 1014.8 |
| 20260502204600 | 21 | 11 | 1.6 | 12.9 | 0.00 | 0.00 | 0.00 | 63 | 1015.0 |
| 20260502203118 | 21 | 72 | 4.8 | 17.7 | 0.00 | 0.00 | 0.00 | 63 | 1015.0 |
| 20260502201604 | 21 | 349 | 4.8 | 12.9 | 0.00 | 0.00 | 0.00 | 65 | 1015.1 |
| 20260502200059 | 21 | 157 | 1.6 | 6.4 | 0.00 | 0.00 | 0.00 | 65 | 1015.4 |
| 20260502194559 | 20 | 174 | 1.6 | 4.8 | 0.00 | 0.00 | 0.00 | 70 | 1015.6 |